Retour au catalogue

IUS R/B(1)

ActifGTO
NORAD 24739·ROCKET BODY·🇺🇸 United States

Lancé Feb 23, 1997 depuis Cape Canaveral Space Force Station

Loading…

TLE

VieillissantSource: Space-Track

Époque: Sep 14, 2026, 06:21 UTC

1 24739U 97008C   26257.26492841  .00001072  00000-0  66971-3 0  9999
2 24739  27.6927 235.8145 7149206  59.0219 352.0255  2.41744586 64938

Suivez IUS R/B(1) en temps réel avec AllMySat

Download on the App Store